EHI
0 4 12 16 17 17 17 17 13 8 6 7 9 9 8 8 9 10 10 9 7 6 5 3 1 0 0 0 0 0 0 0 0 0 0 0 0 0 0 0 0 0 0
1 5 13 18 20 20 18 17 14 9 6 6 8 8 8 8 8 8 7 6 5 4 3 3 2 1 0 0 0 0 0 0 0 0 0 0 0 0 0 0 0 0 0
3 6 12 18 22 23 21 18 14 10 6 4 5 7 7 7 7 6 5 3 2 1 1 1 2 1 0 0 0 0 0 0 0 0 0 0 0 0 0 0 0 0 0
6 8 12 17 22 23 21 17 12 9 5 3 3 4 4 5 6 5 4 2 1 0 0 1 2 1 0 0 0 0 0 0 0 0 0 0 0 0 0 0 0 0 0
10 11 14 17 20 21 19 14 10 6 3 1 1 1 1 3 3 4 3 2 2 1 0 0 1 1 0 0 0 0 0 0 0 0 0 0 0 0 0 0 0 0 0
10 12 15 17 19 19 16 11 7 5 3 1 1 0 0 1 1 2 2 2 2 1 0 0 0 0 0 0 0 0 0 0 0 0 0 0 0 0 0 0 0 0 0
7 10 14 16 19 18 14 9 6 5 4 2 1 0 0 0 0 1 1 1 1 1 0 0 0 0 0 0 0 0 0 0 0 0 0 0 0 0 0 0 0 0 0
7 9 12 14 16 15 13 8 6 5 5 2 1 1 1 0 0 0 0 0 0 0 0 0 0 0 0 0 0 0 0 0 0 0 0 0 0 0 0 0 0 0 0
8 9 10 10 11 12 10 7 5 6 6 2 1 1 1 0 0 0 0 0 0 0 0 0 0 0 0 0 0 0 0 0 0 0 0 0 0 0 0 0 0 0 0
9 8 7 6 7 8 7 5 5 6 5 1 0 1 1 0 0 0 0 0 0 0 0 0 0 0 0 0 0 0 0 0 0 0 0 0 0 0 0 0 0 0 0
7 7 5 3 4 5 4 3 4 4 2 0 0 0 0 0 0 0 0 0 0 0 0 0 0 1 0 0 0 0 0 0 0 0 0 0 0 0 0 0 0 0 0
5 4 3 1 2 2 3 3 2 1 0 0 0 0 0 0 0 0 0 0 0 0 0 0 0 0 0 0 0 0 0 0 0 0 0 0 0 0 0 0 0 0 0
2 2 1 0 0 1 2 2 1 0 0 0 0 0 0 0 0 0 0 0 0 0 0 0 0 0 0 0 0 0 0 0 0 0 0 0 0 0 0 0 0 0 0
1 1 0 0 0 1 1 1 0 0 0 0 0 0 0 0 0 0 0 0 0 0 0 0 0 0 0 0 0 0 0 0 0 0 0 0 0 0 0 0 0 0 0
0 0 0 0 0 0 0 0 0 0 0 0 0 0 0 0 0 0 0 0 0 0 0 0 0 0 0 0 0 0 0 0 0 0 0 0 0 0 0 0 0 0 0
0 0 0 0 0 0 0 0 0 0 0 0 0 0 0 0 0 0 0 0 0 0 0 0 0 0 0 0 0 0 0 0 0 0 0 0 0 0 0 0 0 0 0
0 0 0 0 0 0 0 0 0 0 0 0 0 0 0 0 0 0 0 0 0 0 0 0 0 0 0 0 0 0 0 0 0 0 0 0 0 0 0 0 0 0 0
0 0 0 0 0 0 0 0 0 0 0 0 0 0 0 0 0 0 0 0 0 0 0 0 0 0 0 0 0 0 0 0 0 0 0 0 0 0 0 0 0 0 0
0 0 0 0 0 0 0 0 0 0 0 0 0 0 0 0 0 0 0 0 0 0 0 0 0 0 0 0 0 0 0 0 0 0 0 0 0 0 0 0 0 0 0
0 0 0 0 0 0 0 0 0 0 0 0 0 0 0 0 0 0 0 0 0 0 0 0 0 0 0 0 0 0 0 0 0 0 0 0 0 0 0 0 0 0 0
0 0 0 0 0 0 0 0 0 0 0 0 0 0 0 0 0 0 0 0 0 0 0 0 0 0 0 0 0 0 0 0 0 0 0 0 0 0 0 0 0 0 0
0 0 0 0 0 0 0 0 0 0 0 0 0 0 0 0 0 0 0 0 0 0 0 0 0 0 0 0 0 0 0 0 0 0 0 0 0 0 0 0 0 0 0
0 0 0 0 0 0 0 0 0 0 0 0 0 0 0 0 0 0 0 0 0 0 0 0 0 0 0 0 0 0 0 0 0 0 0 0 0 0 0 0 0 0 0
0 0 0 0 0 0 0 0 0 0 0 0 0 0 0 0 0 0 0 0 0 0 0 0 0 0 0 0 0 0 0 0 0 0 0 0 0 0 0 0 0 0 0
0 0 0 0 0 0 0 0 0 0 0 0 0 0 0 0 0 0 0 0 0 0 0 0 0 0 0 0 0 0 0 0 0 0 0 0 0 0 0 0 0 0 0
0 0 0 0 0 0 0 0 0 0 0 0 0 0 0 0 0 0 0 0 0 0 0 0 0 0 0 0 0 0 0 0 0 0 0 0 0 0 0 0 0 0 0
Wind_Speed
1 2 4 5 5 5 6 6 7 7 7 8 8 9 10 10 10 10 10 11 11 11 11 11 11 11 12 12 12 12 13 12 12 12 11 11 12 13 13 12 11 8 13
3 3 4 5 5 5 5 5 6 6 7 7 8 8 9 9 9 10 10 10 10 10 10 11 11 11 12 12 12 12 12 11 11 11 10 9 10 12 12 11 11 7 12
4 3 4 4 4 4 4 5 5 6 7 7 7 8 8 9 9 9 9 9 9 10 10 10 10 11 11 11 11 11 11 10 10 9 8 5 6 11 11 11 11 11 11
4 3 3 3 4 4 4 4 5 5 6 7 7 7 8 9 10 9 9 9 9 9 10 10 10 11 11 10 10 10 10 10 9 7 4 3 4 10 11 11 11 11 11
3 2 3 3 4 4 3 4 4 5 5 6 7 7 7 8 10 9 9 9 9 9 9 10 10 10 10 10 9 9 9 9 9 7 4 4 3 10 11 11 11 10 10
2 1 3 2 3 4 3 4 4 5 6 6 7 7 8 8 9 9 9 9 9 8 9 9 9 10 10 9 9 9 9 10 8 5 4 4 3 9 11 11 10 10 10
1 1 2 3 3 4 4 4 4 5 6 6 7 7 8 8 9 9 9 9 9 9 9 9 9 10 9 9 8 9 10 10 6 4 4 3 5 10 11 11 11 11 11
2 1 2 3 2 3 4 4 4 4 6 6 6 7 8 8 9 10 10 10 10 10 9 9 9 9 9 8 9 9 9 8 7 6 4 4 7 10 11 10 10 10 10
2 2 1 2 2 2 3 4 4 4 4 5 6 6 7 7 8 9 10 10 10 10 9 9 9 8 8 8 9 10 10 9 5 3 5 3 8 10 11 10 9 10 10
2 2 0 1 1 1 2 3 4 4 3 4 5 5 6 6 7 8 8 9 9 9 9 8 8 8 8 8 9 10 10 8 4 4 3 4 9 10 10 9 9 9 9
2 1 1 0 1 1 2 2 3 4 4 4 4 5 6 3 4 5 6 8 9 9 8 8 8 7 7 7 9 9 7 3 4 3 2 6 9 9 9 9 9 9 9
1 1 1 0 1 1 1 1 2 2 2 2 2 3 3 3 3 4 6 7 8 8 7 7 8 7 5 3 5 7 3 4 3 2 3 8 9 9 9 8 9 9 9
2 1 0 1 1 1 1 1 1 1 2 2 3 3 3 3 3 3 2 3 4 5 3 4 4 3 3 3 3 4 4 3 2 2 3 8 8 8 8 8 9 8 8
1 1 1 1 0 1 2 2 2 1 2 2 2 4 4 3 3 3 2 2 2 2 3 2 2 3 3 4 4 5 4 3 2 2 3 7 7 7 7 8 9 8 8
2 2 2 1 1 1 2 2 2 2 2 2 2 3 4 4 4 4 3 2 2 2 3 3 2 3 3 4 4 5 4 4 4 3 3 6 6 7 7 8 8 8 8
3 3 2 1 1 1 2 2 2 2 2 2 2 3 4 4 4 4 3 3 2 2 2 3 3 3 3 4 4 5 4 4 4 4 3 4 7 7 7 7 8 8 8
3 3 2 1 1 1 1 2 2 2 2 2 2 2 4 4 5 4 4 3 2 2 3 3 4 4 4 4 4 4 4 4 4 4 4 3 4 6 7 7 8 8 7
2 2 2 1 1 1 1 2 2 2 2 2 2 2 3 4 5 4 4 3 3 3 3 3 4 4 4 4 4 3 3 4 4 4 4 3 3 3 4 7 7 7 6
2 2 2 2 2 2 2 1 2 2 2 1 2 2 2 3 4 4 4 3 4 3 3 4 3 4 4 4 4 3 3 3 3 4 4 4 3 3 2 4 6 6 6
1 2 2 2 2 3 3 2 2 3 2 1 1 2 3 3 3 3 3 4 4 3 3 3 4 3 4 4 5 4 3 2 2 3 3 3 3 3 3 3 3 3 5
1 1 2 2 3 3 2 2 2 1 1 1 1 1 2 3 3 3 3 4 4 3 4 5 4 4 3 3 4 3 3 3 2 1 2 3 3 3 3 3 2 2 2
1 1 2 2 3 3 3 2 1 2 1 1 1 1 2 3 3 3 3 3 3 3 4 5 5 3 2 2 4 4 2 1 1 1 1 2 2 2 2 2 2 2 1
2 2 2 2 3 3 4 4 3 3 2 1 1 1 1 2 3 3 4 4 3 3 4 4 5 4 3 1 2 4 4 4 1 1 0 1 2 2 2 1 2 2 2
2 2 2 3 3 4 5 5 5 3 2 1 1 1 1 2 2 2 3 3 4 3 3 4 3 3 4 3 1 1 2 4 4 2 1 0 1 2 2 2 2 2 2
1 2 2 3 2 3 4 5 5 3 2 2 2 2 2 1 2 2 3 3 3 3 3 3 3 3 2 3 3 2 2 2 2 3 2 1 1 1 2 2 2 2 2
1 2 2 3 2 3 4 4 5 5 4 4 3 2 1 1 1 1 2 2 3 3 3 3 3 4 3 2 2 2 3 3 3 3 3 2 2 1 1 1 2 2 2
Wind_Direction
197 190 144 125 120 119 121 124 125 131 125 121 125 126 125 123 121 123 126 125 123 122 120 118 117 114 111 106 103 102 99 96 93 92 93 93 95 97 94 89 86 80 84
170 174 146 132 127 121 124 124 123 137 138 131 131 135 133 131 128 125 125 128 127 123 121 122 119 116 113 110 108 105 100 97 96 91 87 88 93 97 97 95 95 93 90
140 161 155 135 131 121 125 132 135 137 147 142 141 142 143 140 137 132 131 130 131 129 127 125 123 119 116 114 111 108 104 101 101 92 88 85 96 98 98 96 95 93 92
137 144 153 139 138 134 133 143 146 144 150 151 151 149 148 148 143 138 137 134 132 130 131 129 127 123 118 115 112 109 106 105 103 97 87 79 93 102 100 99 95 94 92
126 141 148 134 147 146 148 155 156 156 154 156 153 153 153 153 149 144 143 137 133 131 131 130 130 127 122 118 113 108 103 103 100 95 94 84 86 102 99 96 95 95 94
89 120 157 131 154 156 161 163 169 165 162 157 155 157 160 158 152 148 144 141 137 135 135 134 134 130 125 119 113 106 102 104 99 94 95 91 96 104 99 95 96 96 95
85 109 156 136 146 163 169 169 172 169 162 157 158 160 162 160 155 151 146 144 142 140 141 139 138 134 128 121 112 104 102 103 100 97 94 93 101 104 101 96 95 95 91
121 138 146 134 140 156 170 172 175 170 165 157 159 164 163 163 159 153 151 149 146 146 146 142 138 137 132 121 110 105 102 106 104 102 96 95 105 105 102 98 97 95 92
92 102 123 137 142 153 172 173 174 171 164 157 152 154 159 160 158 154 152 151 147 145 142 137 136 136 130 116 108 105 103 106 102 102 105 102 108 108 105 103 101 98 94
65 81 49 114 124 151 174 176 163 160 157 153 143 135 133 142 150 150 147 148 146 143 140 137 134 133 126 115 111 107 104 100 96 92 95 108 111 112 108 105 103 101 96
35 37 31 270 160 157 163 165 160 153 147 145 143 131 127 129 132 139 142 141 143 142 141 137 132 126 115 111 111 108 101 96 97 90 96 111 115 114 111 107 104 103 99
329 334 13 314 198 174 163 142 159 157 150 149 146 141 139 135 128 125 128 132 138 139 141 138 128 115 101 97 101 101 96 95 91 90 101 108 115 115 113 111 110 106 102
226 228 270 265 230 182 165 160 152 154 155 149 146 146 140 131 125 118 122 123 125 128 124 123 111 103 106 109 104 102 101 95 90 89 101 106 114 118 117 116 113 109 104
238 236 243 238 240 213 175 171 167 159 164 163 155 148 144 140 133 136 132 129 129 127 123 116 117 119 114 112 114 111 105 99 95 87 94 102 109 116 120 120 115 110 106
224 238 257 225 215 225 178 170 162 162 171 165 159 158 149 148 147 143 138 135 134 135 139 133 125 122 117 115 115 117 115 106 98 89 83 90 98 108 114 121 118 112 108
224 224 223 219 198 210 191 172 167 158 153 154 160 161 156 153 151 147 142 142 140 141 143 141 136 127 121 118 113 113 113 110 96 91 78 78 83 93 101 110 113 112 108
220 204 199 201 169 177 188 175 152 144 143 149 153 151 156 151 149 149 143 143 147 138 127 125 117 110 111 112 111 113 112 107 106 98 90 78 72 73 83 97 104 107 105
225 200 196 177 144 136 152 160 140 127 129 135 128 127 140 145 146 148 146 147 148 138 129 130 131 118 110 114 112 108 108 107 107 106 100 92 80 67 74 85 95 101 102
213 190 176 162 144 130 117 125 126 117 114 122 123 126 136 137 143 144 149 149 145 140 135 137 131 131 124 118 115 99 96 109 117 116 111 104 96 91 79 83 88 91 94
212 170 164 156 144 126 115 107 99 101 96 96 103 122 136 133 133 137 140 143 138 136 137 130 129 125 130 130 112 90 69 81 102 121 128 117 108 103 92 83 81 85 89
79 122 134 137 134 126 122 120 121 129 116 97 100 114 128 128 132 134 136 141 136 140 148 140 127 128 127 127 105 84 44 48 70 97 121 124 123 115 107 97 87 72 64
186 158 148 150 140 137 138 123 121 118 108 78 43 66 111 127 134 138 138 140 136 129 133 138 133 128 131 136 128 124 108 33 7 54 116 139 141 123 124 125 116 105 91
183 178 170 156 136 134 128 113 100 80 68 64 55 52 62 113 129 135 143 141 140 139 151 150 146 138 149 155 140 145 153 184 184 326 231 153 154 143 151 149 149 151 131
196 179 163 150 142 138 135 136 137 139 146 164 158 109 64 92 114 121 133 136 139 137 151 162 148 141 147 159 167 144 141 145 149 159 294 280 185 175 179 176 160 154 140
167 159 158 147 153 145 145 149 147 143 138 122 112 105 94 91 117 124 126 133 140 143 150 153 136 142 142 157 169 159 122 97 117 144 178 216 265 231 200 190 174 165 155
131 139 133 139 147 149 150 152 152 153 147 143 142 134 132 135 115 123 131 139 142 145 156 159 149 154 153 142 151 166 159 159 166 153 162 179 208 246 228 193 181 182 176